Hourly Data Report for October 31, 2018

CARBERRY CS
MANITOBA
Current Station Operator: ECCC - MSC

49°54'20.900" N
99°21'26.800" W
383.50 m
5010547
71170
WZE

Download Data

Hourly Data (October 2018)
Hourly Data Report for October 31, 2018
TIME
LST
Temp Definition
°C
Dew Point Definition
°C
Rel Hum Definition
%
Precip. Amount Definition
mm

Wind Dir Definition
10's deg

Wind Spd Definition
km/h
Visibility Definition
km
Stn Press Definition
kPa
Hmdx Definition


Wind Chill Definition


Weather Definition


00:00 0.5 -2.4 81 0.0 28 17   96.44     LegendNANA
01:00 0.9 -2.0 81 0.0 28 19   96.46     LegendNANA
02:00 0.8 -2.1 81 0.0 29 16   96.49     LegendNANA
03:00 0.6 -1.9 84 0.0 28 17   96.52     LegendNANA
04:00 0.2 -2.2 83 0.0 29 16   96.55     LegendNANA
05:00 -0.6 -2.2 89 0.0 26 12   96.59   -5 LegendNANA
06:00 0.3 -2.1 84 0.0 29 20   96.59     LegendNANA
07:00 0.3 -2.1 84 0.0 28 19   96.61     LegendNANA
08:00 0.4 -2.0 84 0.0 27 18   96.64     LegendNANA
09:00 0.6 -1.8 84 0.0 26 15   96.64     LegendNANA
10:00 1.3 -2.2 77 0.0 27 16   96.67     LegendNANA
11:00 1.7 -3.0 71 0.0 30 12   96.66     LegendNANA
12:00 1.8 -3.1 70 0.0 32 11   96.66     LegendNANA
13:00 2.2 -2.5 71 0.0 27 17   96.64     LegendNANA
14:00 2.2 -2.5 71 0.0 28 17   96.63     LegendNANA
15:00 2.2 -2.9 69 0.0 29 14   96.64     LegendNANA
16:00 1.8 -2.6 73 0.0 27 22   96.66     LegendNANA
17:00 1.4 -2.3 76 0.0 28 17   96.68     LegendNANA
18:00 1.0 -2.4 78 0.0 32 4   96.69     LegendNANA
19:00 0.8 -2.5 79 0.0 30 8   96.70     LegendNANA
20:00 0.4 -2.6 80 0.0 30 5   96.70     LegendNANA
21:00 -0.8 -3.3 83 0.0 20 6   96.68   -3 LegendNANA
22:00 -2.3 -3.8 89 0.0 20 3   96.68   -3 LegendNANA
23:00 -0.9 -2.7 88 0.0 21 2   96.71   -2 LegendNANA

Notes on Data Quality.

Legend

  • E = Estimated
  • M = Missing
  • NA = Not Available*
  • [empty] = Indicates an unobserved value
Date modified: